Time,TemperatureF,DewpointF,PressureIn,WindDirection,WindDirectionDegrees,WindSpeedMPH,WindSpeedGustMPH,Humidity,HourlyPrecipIn,Conditions,Clouds,dailyrainin,SoftwareType,DateUTC
2013-05-29 00:00:00,73.5,61.9,30.11,East,97,3.0,3.0,67,0.00,,---,0.00,VWS V14.01,2013-05-29 04:00:00,
2013-05-29 00:01:00,72.0,60.5,30.12,ESE,117,0.0,3.0,67,0.00,,---,0.00,VWS V14.01,2013-05-29 04:01:00,
2013-05-29 00:05:00,73.5,61.5,30.11,ESE,123,0.0,3.0,66,0.00,,---,0.00,VWS V14.01,2013-05-29 04:05:00,
2013-05-29 00:06:00,71.8,60.7,30.12,WSW,248,1.0,2.0,68,0.00,,---,0.00,VWS V14.01,2013-05-29 04:06:00,
2013-05-29 00:10:00,73.3,61.3,30.11,ESE,103,0.0,2.0,66,0.00,,---,0.00,VWS V14.01,2013-05-29 04:10:00,
2013-05-29 00:11:00,71.8,60.7,30.12,South,175,0.0,0.0,68,0.00,,---,0.00,VWS V14.01,2013-05-29 04:11:00,
2013-05-29 00:15:00,73.2,61.6,30.10,ESE,103,0.0,0.0,67,0.00,,---,0.00,VWS V14.01,2013-05-29 04:15:00,
2013-05-29 00:16:00,71.6,60.9,30.12,South,174,0.0,0.0,69,0.00,,---,0.00,VWS V14.01,2013-05-29 04:16:00,
2013-05-29 00:20:00,73.0,61.4,30.10,ESE,103,0.0,0.0,67,0.00,,---,0.00,VWS V14.01,2013-05-29 04:20:00,
2013-05-29 00:21:00,71.5,60.8,30.12,SSE,150,0.0,0.0,69,0.00,,---,0.00,VWS V14.01,2013-05-29 04:21:00,
2013-05-29 00:25:00,73.0,61.4,30.10,South,191,0.0,0.0,67,0.00,,---,0.00,VWS V14.01,2013-05-29 04:25:00,
2013-05-29 00:26:00,71.3,60.6,30.12,SE,130,0.0,0.0,69,0.00,,---,0.00,VWS V14.01,2013-05-29 04:26:00,
2013-05-29 00:30:00,72.8,61.2,30.11,South,189,0.0,0.0,67,0.00,,---,0.00,VWS V14.01,2013-05-29 04:30:00,
2013-05-29 00:31:00,71.3,60.6,30.12,SSE,162,0.0,0.0,69,0.00,,---,0.00,VWS V14.01,2013-05-29 04:31:00,
2013-05-29 00:35:00,72.7,61.1,30.11,SE,144,0.0,1.0,67,0.00,,---,0.00,VWS V14.01,2013-05-29 04:35:00,
2013-05-29 00:36:00,71.1,60.4,30.12,SSE,160,0.0,1.0,69,0.00,,---,0.00,VWS V14.01,2013-05-29 04:36:00,
2013-05-29 00:40:00,72.5,60.9,30.11,ESE,104,0.0,3.0,67,0.00,,---,0.00,VWS V14.01,2013-05-29 04:40:00,
2013-05-29 00:41:00,70.9,60.6,30.12,SSE,154,0.0,0.0,70,0.00,,---,0.00,VWS V14.01,2013-05-29 04:41:00,
2013-05-29 00:45:00,72.5,60.9,30.12,SE,128,0.0,2.0,67,0.00,,---,0.00,VWS V14.01,2013-05-29 04:45:00,
2013-05-29 00:46:00,70.8,60.5,30.11,East,92,0.0,0.0,70,0.00,,---,0.00,VWS V14.01,2013-05-29 04:46:00,
2013-05-29 00:50:00,72.3,61.2,30.12,SE,128,0.0,0.0,68,0.00,,---,0.00,VWS V14.01,2013-05-29 04:50:00,
2013-05-29 00:51:00,70.8,60.5,30.11,East,93,0.0,0.0,70,0.00,,---,0.00,VWS V14.01,2013-05-29 04:51:00,
2013-05-29 00:55:00,72.1,60.5,30.12,SE,128,0.0,1.0,67,0.00,,---,0.00,VWS V14.01,2013-05-29 04:55:00,
2013-05-29 00:56:00,70.6,60.8,30.11,SW,236,0.0,0.0,71,0.00,,---,0.00,VWS V14.01,2013-05-29 04:56:00,
2013-05-29 01:00:00,72.0,60.5,30.12,ESE,117,0.0,3.0,67,0.00,,---,0.00,VWS V14.01,2013-05-29 05:00:00,
2013-05-29 01:01:00,70.4,60.6,30.12,South,175,0.0,0.0,71,0.00,,---,0.00,VWS V14.01,2013-05-29 05:01:00,
2013-05-29 01:05:00,71.8,60.7,30.12,WSW,248,2.0,2.0,68,0.00,,---,0.00,VWS V14.01,2013-05-29 05:05:00,
2013-05-29 01:06:00,70.4,60.6,30.12,SE,124,0.0,0.0,71,0.00,,---,0.00,VWS V14.01,2013-05-29 05:06:00,
2013-05-29 01:10:00,71.8,60.7,30.12,South,175,0.0,2.0,68,0.00,,---,0.00,VWS V14.01,2013-05-29 05:10:00,
2013-05-29 01:11:00,70.3,60.5,30.12,SE,128,0.0,0.0,71,0.00,,---,0.00,VWS V14.01,2013-05-29 05:11:00,
2013-05-29 01:15:00,71.6,60.9,30.12,South,174,0.0,0.0,69,0.00,,---,0.00,VWS V14.01,2013-05-29 05:15:00,
2013-05-29 01:16:00,70.1,60.3,30.11,SE,134,1.0,3.0,71,0.00,,---,0.00,VWS V14.01,2013-05-29 05:16:00,
2013-05-29 01:20:00,71.5,60.8,30.12,SSE,150,0.0,1.0,69,0.00,,---,0.00,VWS V14.01,2013-05-29 05:20:00,
2013-05-29 01:21:00,70.1,60.3,30.11,SE,143,0.0,1.0,71,0.00,,---,0.00,VWS V14.01,2013-05-29 05:21:00,
2013-05-29 01:25:00,71.3,60.6,30.12,SE,130,0.0,0.0,69,0.00,,---,0.00,VWS V14.01,2013-05-29 05:25:00,
2013-05-29 01:26:00,69.9,60.5,30.11,East,100,0.0,0.0,72,0.00,,---,0.00,VWS V14.01,2013-05-29 05:26:00,
2013-05-29 01:30:00,71.3,60.6,30.12,SSE,162,0.0,0.0,69,0.00,,---,0.00,VWS V14.01,2013-05-29 05:30:00,
2013-05-29 01:31:00,69.8,60.4,30.12,South,176,0.0,0.0,72,0.00,,---,0.00,VWS V14.01,2013-05-29 05:31:00,
2013-05-29 01:35:00,71.1,60.4,30.12,SSE,160,1.0,3.0,69,0.00,,---,0.00,VWS V14.01,2013-05-29 05:35:00,
2013-05-29 01:36:00,69.6,60.2,30.12,ESE,106,0.0,0.0,72,0.00,,---,0.00,VWS V14.01,2013-05-29 05:36:00,
2013-05-29 01:40:00,70.9,60.6,30.12,SSE,154,0.0,1.0,70,0.00,,---,0.00,VWS V14.01,2013-05-29 05:40:00,
2013-05-29 01:41:00,69.6,60.6,30.12,East,83,0.0,0.0,73,0.00,,---,0.00,VWS V14.01,2013-05-29 05:41:00,
2013-05-29 01:45:00,70.8,60.5,30.11,East,92,0.0,4.0,70,0.00,,---,0.00,VWS V14.01,2013-05-29 05:45:00,
2013-05-29 01:46:00,69.4,60.4,30.11,SE,130,0.0,0.0,73,0.00,,---,0.00,VWS V14.01,2013-05-29 05:46:00,
2013-05-29 01:50:00,70.8,60.5,30.11,South,188,0.0,0.0,70,0.00,,---,0.00,VWS V14.01,2013-05-29 05:50:00,
2013-05-29 01:51:00,69.3,60.3,30.11,SE,130,0.0,0.0,73,0.00,,---,0.00,VWS V14.01,2013-05-29 05:51:00,
2013-05-29 01:55:00,70.6,60.8,30.11,SW,236,0.0,0.0,71,0.00,,---,0.00,VWS V14.01,2013-05-29 05:55:00,
2013-05-29 01:56:00,69.3,60.7,30.11,SE,130,0.0,0.0,74,0.00,,---,0.00,VWS V14.01,2013-05-29 05:56:00,
2013-05-29 02:00:00,70.4,60.6,30.12,South,175,0.0,3.0,71,0.00,,---,0.00,VWS V14.01,2013-05-29 06:00:00,
2013-05-29 02:01:00,69.1,60.5,30.11,ESE,121,0.0,0.0,74,0.00,,---,0.00,VWS V14.01,2013-05-29 06:01:00,
2013-05-29 02:05:00,70.4,60.6,30.12,ESE,123,0.0,2.0,71,0.00,,---,0.00,VWS V14.01,2013-05-29 06:05:00,
2013-05-29 02:06:00,68.9,60.3,30.11,SW,216,0.0,0.0,74,0.00,,---,0.00,VWS V14.01,2013-05-29 06:06:00,
2013-05-29 02:10:00,70.3,60.5,30.12,ESE,107,0.0,0.0,71,0.00,,---,0.00,VWS V14.01,2013-05-29 06:10:00,
2013-05-29 02:11:00,68.8,60.2,30.11,ESE,112,0.0,0.0,74,0.00,,---,0.00,VWS V14.01,2013-05-29 06:11:00,
2013-05-29 02:15:00,70.1,60.3,30.11,SE,134,1.0,3.0,71,0.00,,---,0.00,VWS V14.01,2013-05-29 06:15:00,
2013-05-29 02:16:00,68.8,60.6,30.11,SE,138,0.0,2.0,75,0.00,,---,0.00,VWS V14.01,2013-05-29 06:16:00,
2013-05-29 02:20:00,70.1,60.3,30.11,SE,143,0.0,1.0,71,0.00,,---,0.00,VWS V14.01,2013-05-29 06:20:00,
2013-05-29 02:21:00,68.6,60.4,30.11,ESE,109,0.0,3.0,75,0.00,,---,0.00,VWS V14.01,2013-05-29 06:21:00,
2013-05-29 02:25:00,69.9,60.5,30.11,East,100,0.0,0.0,72,0.00,,---,0.00,VWS V14.01,2013-05-29 06:25:00,
2013-05-29 02:26:00,68.6,60.7,30.11,SSE,160,0.0,0.0,76,0.00,,---,0.00,VWS V14.01,2013-05-29 06:26:00,
2013-05-29 02:30:00,69.8,60.4,30.12,South,176,0.0,2.0,72,0.00,,---,0.00,VWS V14.01,2013-05-29 06:30:00,
2013-05-29 02:31:00,68.4,60.5,30.11,ESE,113,0.0,3.0,76,0.00,,---,0.00,VWS V14.01,2013-05-29 06:31:00,
2013-05-29 02:35:00,69.6,60.2,30.12,ESE,106,0.0,2.0,72,0.00,,---,0.00,VWS V14.01,2013-05-29 06:35:00,
2013-05-29 02:36:00,68.3,60.5,30.11,ESE,116,0.0,2.0,76,0.00,,---,0.00,VWS V14.01,2013-05-29 06:36:00,
2013-05-29 02:40:00,69.6,60.6,30.12,East,83,0.0,2.0,73,0.00,,---,0.00,VWS V14.01,2013-05-29 06:40:00,
2013-05-29 02:41:00,68.3,60.8,30.11,ESE,116,0.0,0.0,77,0.00,,---,0.00,VWS V14.01,2013-05-29 06:41:00,
2013-05-29 02:45:00,69.4,60.4,30.11,SE,130,0.0,0.0,73,0.00,,---,0.00,VWS V14.01,2013-05-29 06:45:00,
2013-05-29 02:46:00,68.1,60.6,30.11,SE,126,0.0,0.0,77,0.00,,---,0.00,VWS V14.01,2013-05-29 06:46:00,
2013-05-29 02:50:00,69.3,60.3,30.11,SE,130,0.0,0.0,73,0.00,,---,0.00,VWS V14.01,2013-05-29 06:50:00,
2013-05-29 02:51:00,68.1,60.6,30.11,SE,126,0.0,0.0,77,0.00,,---,0.00,VWS V14.01,2013-05-29 06:51:00,
2013-05-29 02:55:00,69.3,60.7,30.11,SE,130,0.0,0.0,74,0.00,,---,0.00,VWS V14.01,2013-05-29 06:55:00,
2013-05-29 02:56:00,67.9,60.8,30.11,SE,126,0.0,0.0,78,0.00,,---,0.00,VWS V14.01,2013-05-29 06:56:00,
2013-05-29 03:00:00,69.1,60.5,30.11,ESE,121,0.0,2.0,74,0.00,,---,0.00,VWS V14.01,2013-05-29 07:00:00,
2013-05-29 03:01:00,67.8,60.7,30.11,ESE,119,0.0,2.0,78,0.00,,---,0.00,VWS V14.01,2013-05-29 07:01:00,
2013-05-29 03:05:00,68.9,60.3,30.11,SW,216,0.0,0.0,74,0.00,,---,0.00,VWS V14.01,2013-05-29 07:05:00,
2013-05-29 03:06:00,67.6,60.9,30.11,ESE,119,0.0,0.0,79,0.00,,---,0.00,VWS V14.01,2013-05-29 07:06:00,
2013-05-29 03:10:00,68.8,60.2,30.11,ESE,112,0.0,1.0,74,0.00,,---,0.00,VWS V14.01,2013-05-29 07:10:00,
2013-05-29 03:11:00,67.6,60.9,30.11,SE,124,0.0,0.0,79,0.00,,---,0.00,VWS V14.01,2013-05-29 07:11:00,
2013-05-29 03:15:00,68.8,60.6,30.11,SE,138,0.0,2.0,75,0.00,,---,0.00,VWS V14.01,2013-05-29 07:15:00,
2013-05-29 03:16:00,67.4,60.7,30.11,SE,124,0.0,0.0,79,0.00,,---,0.00,VWS V14.01,2013-05-29 07:16:00,
2013-05-29 03:20:00,68.6,60.4,30.11,ESE,109,0.0,3.0,75,0.00,,---,0.00,VWS V14.01,2013-05-29 07:20:00,
2013-05-29 03:21:00,67.4,61.0,30.11,ESE,123,0.0,0.0,80,0.00,,---,0.00,VWS V14.01,2013-05-29 07:21:00,
2013-05-29 03:25:00,68.6,60.7,30.11,SSE,160,0.0,0.0,76,0.00,,---,0.00,VWS V14.01,2013-05-29 07:25:00,
2013-05-29 03:26:00,67.3,60.9,30.11,ESE,123,0.0,0.0,80,0.00,,---,0.00,VWS V14.01,2013-05-29 07:26:00,
2013-05-29 03:30:00,68.4,60.5,30.11,ESE,113,0.0,3.0,76,0.00,,---,0.00,VWS V14.01,2013-05-29 07:30:00,
2013-05-29 03:31:00,67.3,60.9,30.11,ESE,116,0.0,3.0,80,0.00,,---,0.00,VWS V14.01,2013-05-29 07:31:00,
2013-05-29 03:35:00,68.3,60.5,30.11,ESE,116,0.0,2.0,76,0.00,,---,0.00,VWS V14.01,2013-05-29 07:35:00,
2013-05-29 03:36:00,67.1,61.1,30.11,ESE,112,0.0,2.0,81,0.00,,---,0.00,VWS V14.01,2013-05-29 07:36:00,
2013-05-29 03:40:00,68.3,60.8,30.11,ESE,116,0.0,0.0,77,0.00,,---,0.00,VWS V14.01,2013-05-29 07:40:00,
2013-05-29 03:41:00,67.1,61.1,30.11,ESE,112,0.0,0.0,81,0.00,,---,0.00,VWS V14.01,2013-05-29 07:41:00,
2013-05-29 03:45:00,66.9,60.9,30.12,ESE,112,0.0,0.0,81,0.00,,---,0.00,VWS V14.01,2013-05-29 07:45:00,
2013-05-29 03:50:00,66.8,60.8,30.12,ESE,112,0.0,0.0,81,0.00,,---,0.00,VWS V14.01,2013-05-29 07:50:00,
2013-05-29 03:55:00,66.8,61.1,30.12,ESE,113,0.0,0.0,82,0.00,,---,0.00,VWS V14.01,2013-05-29 07:55:00,
2013-05-29 04:00:00,66.6,60.9,30.12,ESE,113,0.0,0.0,82,0.00,,---,0.00,VWS V14.01,2013-05-29 08:00:00,
2013-05-29 04:05:00,66.4,60.7,30.12,ESE,113,0.0,0.0,82,0.00,,---,0.00,VWS V14.01,2013-05-29 08:05:00,
2013-05-29 04:10:00,66.4,61.1,30.12,ESE,113,0.0,0.0,83,0.00,,---,0.00,VWS V14.01,2013-05-29 08:10:00,
2013-05-29 04:15:00,66.3,61.0,30.13,ESE,113,0.0,0.0,83,0.00,,---,0.00,VWS V14.01,2013-05-29 08:15:00,
2013-05-29 04:20:00,66.1,61.1,30.13,ESE,113,0.0,0.0,84,0.00,,---,0.00,VWS V14.01,2013-05-29 08:20:00,
2013-05-29 04:25:00,66.0,61.0,30.13,ESE,112,0.0,0.0,84,0.00,,---,0.00,VWS V14.01,2013-05-29 08:25:00,
2013-05-29 04:30:00,66.0,61.4,30.13,ESE,112,0.0,0.0,85,0.00,,---,0.00,VWS V14.01,2013-05-29 08:30:00,
2013-05-29 04:35:00,67.1,61.1,30.11,ESE,112,0.0,2.0,81,0.00,,---,0.00,VWS V14.01,2013-05-29 08:35:00,
2013-05-29 04:36:00,65.8,61.2,30.13,ESE,112,0.0,0.0,85,0.00,,---,0.00,VWS V14.01,2013-05-29 08:36:00,
2013-05-29 04:40:00,65.8,61.2,30.13,ESE,112,0.0,0.0,85,0.00,,---,0.00,VWS V14.01,2013-05-29 08:40:00,
2013-05-29 04:45:00,65.6,61.0,30.14,ESE,112,0.0,0.0,85,0.00,,---,0.00,VWS V14.01,2013-05-29 08:45:00,
2013-05-29 04:50:00,65.6,61.0,30.14,ESE,112,0.0,0.0,85,0.00,,---,0.00,VWS V14.01,2013-05-29 08:50:00,
2013-05-29 04:55:00,65.5,61.2,30.14,ESE,112,0.0,0.0,86,0.00,,---,0.00,VWS V14.01,2013-05-29 08:55:00,
2013-05-29 05:00:00,65.3,61.0,30.14,ESE,112,0.0,0.0,86,0.00,,---,0.00,VWS V14.01,2013-05-29 09:00:00,
2013-05-29 05:05:00,65.2,60.9,30.14,ESE,112,0.0,0.0,86,0.00,,---,0.00,VWS V14.01,2013-05-29 09:05:00,
2013-05-29 05:10:00,65.2,60.9,30.14,ESE,112,0.0,0.0,86,0.00,,---,0.00,VWS V14.01,2013-05-29 09:10:00,
2013-05-29 05:15:00,65.0,61.0,30.14,ESE,112,0.0,0.0,87,0.00,,---,0.00,VWS V14.01,2013-05-29 09:15:00,
2013-05-29 05:20:00,64.8,60.8,30.14,ESE,112,0.0,0.0,87,0.00,,---,0.00,VWS V14.01,2013-05-29 09:20:00,
2013-05-29 05:25:00,64.7,60.8,30.14,ESE,112,0.0,0.0,87,0.00,,---,0.00,VWS V14.01,2013-05-29 09:25:00,
2013-05-29 05:30:00,64.5,60.9,30.15,ESE,112,0.0,0.0,88,0.00,,---,0.00,VWS V14.01,2013-05-29 09:30:00,
2013-05-29 05:35:00,64.5,60.9,30.15,ESE,112,0.0,0.0,88,0.00,,---,0.00,VWS V14.01,2013-05-29 09:35:00,
2013-05-29 05:40:00,64.3,60.7,30.15,ESE,112,0.0,0.0,88,0.00,,---,0.00,VWS V14.01,2013-05-29 09:40:00,
2013-05-29 05:45:00,64.2,60.6,30.15,ESE,112,0.0,0.0,88,0.00,,---,0.00,VWS V14.01,2013-05-29 09:45:00,
2013-05-29 05:50:00,64.2,60.9,30.15,ESE,112,0.0,0.0,89,0.00,,---,0.00,VWS V14.01,2013-05-29 09:50:00,
2013-05-29 05:55:00,64.0,60.7,30.15,ESE,112,0.0,0.0,89,0.00,,---,0.00,VWS V14.01,2013-05-29 09:55:00,
2013-05-29 06:00:00,63.9,60.6,30.15,ESE,112,0.0,0.0,89,0.00,,---,0.00,VWS V14.01,2013-05-29 10:00:00,
2013-05-29 06:05:00,63.9,60.6,30.15,ESE,112,0.0,0.0,89,0.00,,---,0.00,VWS V14.01,2013-05-29 10:05:00,
2013-05-29 06:10:00,63.9,60.6,30.15,ESE,112,0.0,0.0,89,0.00,,---,0.00,VWS V14.01,2013-05-29 10:10:00,
2013-05-29 06:15:00,63.7,60.7,30.15,ESE,112,0.0,0.0,90,0.00,,---,0.00,VWS V14.01,2013-05-29 10:15:00,
2013-05-29 06:20:00,63.7,60.7,30.15,ESE,112,0.0,0.0,90,0.00,,---,0.00,VWS V14.01,2013-05-29 10:20:00,
2013-05-29 06:25:00,63.7,60.7,30.15,ESE,112,0.0,0.0,90,0.00,,---,0.00,VWS V14.01,2013-05-29 10:25:00,
2013-05-29 06:30:00,63.7,60.7,30.15,ESE,112,0.0,0.0,90,0.00,,---,0.00,VWS V14.01,2013-05-29 10:30:00,
2013-05-29 06:35:00,63.7,60.7,30.15,ESE,112,0.0,0.0,90,0.00,,---,0.00,VWS V14.01,2013-05-29 10:35:00,
2013-05-29 06:40:00,63.7,61.0,30.15,ESE,120,0.0,0.0,91,0.00,,---,0.00,VWS V14.01,2013-05-29 10:40:00,
2013-05-29 06:45:00,63.7,61.0,30.16,ESE,120,0.0,0.0,91,0.00,,---,0.00,VWS V14.01,2013-05-29 10:45:00,
2013-05-29 06:50:00,63.9,61.2,30.16,ESE,120,0.0,0.0,91,0.00,,---,0.00,VWS V14.01,2013-05-29 10:50:00,
2013-05-29 06:55:00,63.9,61.2,30.16,ESE,120,0.0,0.0,91,0.00,,---,0.00,VWS V14.01,2013-05-29 10:55:00,
2013-05-29 07:00:00,64.0,61.3,30.16,ESE,120,0.0,0.0,91,0.00,,---,0.00,VWS V14.01,2013-05-29 11:00:00,
2013-05-29 07:05:00,64.2,61.5,30.16,ESE,120,0.0,0.0,91,0.00,,---,0.00,VWS V14.01,2013-05-29 11:05:00,
2013-05-29 07:10:00,64.3,61.9,30.16,ESE,120,0.0,0.0,92,0.00,,---,0.00,VWS V14.01,2013-05-29 11:10:00,
2013-05-29 07:15:00,64.7,62.3,30.16,ESE,120,0.0,0.0,92,0.00,,---,0.00,VWS V14.01,2013-05-29 11:15:00,
2013-05-29 07:20:00,64.8,62.1,30.16,ESE,120,0.0,0.0,91,0.00,,---,0.00,VWS V14.01,2013-05-29 11:20:00,
2013-05-29 07:25:00,65.2,62.5,30.16,ENE,66,0.0,0.0,91,0.00,,---,0.00,VWS V14.01,2013-05-29 11:25:00,
2013-05-29 07:30:00,65.5,62.5,30.17,ENE,64,0.0,1.0,90,0.00,,---,0.00,VWS V14.01,2013-05-29 11:30:00,
2013-05-29 07:35:00,65.6,62.3,30.17,ENE,64,0.0,0.0,89,0.00,,---,0.00,VWS V14.01,2013-05-29 11:35:00,
2013-05-29 07:40:00,66.0,62.7,30.17,West,263,0.0,0.0,89,0.00,,---,0.00,VWS V14.01,2013-05-29 11:40:00,
2013-05-29 07:45:00,66.3,62.6,30.17,West,263,0.0,0.0,88,0.00,,---,0.00,VWS V14.01,2013-05-29 11:45:00,
2013-05-29 07:50:00,66.4,62.4,30.17,ESE,113,0.0,0.0,87,0.00,,---,0.00,VWS V14.01,2013-05-29 11:50:00,
2013-05-29 07:55:00,66.8,62.8,30.17,ESE,113,0.0,0.0,87,0.00,,---,0.00,VWS V14.01,2013-05-29 11:55:00,
2013-05-29 08:00:00,67.3,62.6,30.17,ESE,113,0.0,0.0,85,0.00,,---,0.00,VWS V14.01,2013-05-29 12:00:00,
2013-05-29 08:05:00,67.6,62.6,30.17,East,96,0.0,2.0,84,0.00,,---,0.00,VWS V14.01,2013-05-29 12:05:00,
2013-05-29 08:10:00,68.1,62.8,30.17,ENE,78,0.0,0.0,83,0.00,,---,0.00,VWS V14.01,2013-05-29 12:10:00,
2013-05-29 08:15:00,68.4,62.7,30.17,NNE,24,0.0,1.0,82,0.00,,---,0.00,VWS V14.01,2013-05-29 12:15:00,
2013-05-29 08:20:00,68.8,62.7,30.17,NNE,32,0.0,0.0,81,0.00,,---,0.00,VWS V14.01,2013-05-29 12:20:00,
2013-05-29 08:25:00,69.1,63.0,30.17,NE,54,0.0,0.0,81,0.00,,---,0.00,VWS V14.01,2013-05-29 12:25:00,
2013-05-29 08:30:00,69.3,62.9,30.17,NE,55,0.0,0.0,80,0.00,,---,0.00,VWS V14.01,2013-05-29 12:30:00,
2013-05-29 08:35:00,69.6,62.8,30.17,ESE,102,1.0,3.0,79,0.00,,---,0.00,VWS V14.01,2013-05-29 12:35:00,
2013-05-29 08:40:00,70.1,62.9,30.17,ESE,102,0.0,1.0,78,0.00,,---,0.00,VWS V14.01,2013-05-29 12:40:00,
2013-05-29 08:45:00,70.4,62.8,30.17,ESE,123,0.0,3.0,77,0.00,,---,0.00,VWS V14.01,2013-05-29 12:45:00,
2013-05-29 08:50:00,70.9,63.0,30.17,SE,137,0.0,7.0,76,0.00,,---,0.00,VWS V14.01,2013-05-29 12:50:00,
2013-05-29 08:55:00,71.3,63.3,30.17,ENE,75,0.0,1.0,76,0.00,,---,0.00,VWS V14.01,2013-05-29 12:55:00,
2013-05-29 09:00:00,71.6,62.9,30.18,East,83,0.0,5.0,74,0.00,,---,0.00,VWS V14.01,2013-05-29 13:00:00,
2013-05-29 09:05:00,72.0,62.9,30.18,East,85,0.0,6.0,73,0.00,,---,0.00,VWS V14.01,2013-05-29 13:05:00,
2013-05-29 09:10:00,72.3,62.8,30.18,East,79,0.0,3.0,72,0.00,,---,0.00,VWS V14.01,2013-05-29 13:10:00,
2013-05-29 09:15:00,72.5,62.6,30.18,SE,141,0.0,8.0,71,0.00,,---,0.00,VWS V14.01,2013-05-29 13:15:00,
2013-05-29 09:20:00,72.8,63.3,30.18,ESE,120,0.0,3.0,72,0.00,,---,0.00,VWS V14.01,2013-05-29 13:20:00,
2013-05-29 09:25:00,73.0,63.5,30.18,ENE,75,0.0,0.0,72,0.00,,---,0.00,VWS V14.01,2013-05-29 13:25:00,
2013-05-29 09:30:00,73.3,62.9,30.18,NE,51,0.0,8.0,70,0.00,,---,0.00,VWS V14.01,2013-05-29 13:30:00,
2013-05-29 09:35:00,73.7,62.9,30.18,ESE,112,0.0,2.0,69,0.00,,---,0.00,VWS V14.01,2013-05-29 13:35:00,
2013-05-29 09:40:00,74.0,63.2,30.18,NE,35,0.0,0.0,69,0.00,,---,0.00,VWS V14.01,2013-05-29 13:40:00,
2013-05-29 09:45:00,74.2,63.0,30.18,NE,49,0.0,0.0,68,0.00,,---,0.00,VWS V14.01,2013-05-29 13:45:00,
2013-05-29 09:50:00,74.7,62.6,30.18,NE,37,0.0,2.0,66,0.00,,---,0.00,VWS V14.01,2013-05-29 13:50:00,
2013-05-29 09:55:00,75.1,62.5,30.18,NE,45,0.0,0.0,65,0.00,,---,0.00,VWS V14.01,2013-05-29 13:55:00,
2013-05-29 10:00:00,75.4,61.0,30.17,South,189,0.0,2.0,61,0.00,,---,0.00,VWS V14.01,2013-05-29 14:00:00,
2013-05-29 10:05:00,75.8,61.9,30.17,ENE,68,0.0,2.0,62,0.00,,---,0.00,VWS V14.01,2013-05-29 14:05:00,
2013-05-29 10:10:00,76.1,61.7,30.17,ENE,65,0.0,2.0,61,0.00,,---,0.00,VWS V14.01,2013-05-29 14:10:00,
2013-05-29 10:15:00,76.7,62.7,30.17,NE,48,0.0,0.0,62,0.00,,---,0.00,VWS V14.01,2013-05-29 14:15:00,
2013-05-29 10:20:00,77.4,62.0,30.17,SE,144,0.0,2.0,59,0.00,,---,0.00,VWS V14.01,2013-05-29 14:20:00,
2013-05-29 10:25:00,77.6,61.7,30.17,East,95,0.0,7.0,58,0.00,,---,0.00,VWS V14.01,2013-05-29 14:25:00,
2013-05-29 10:30:00,77.9,62.0,30.17,East,90,0.0,0.0,58,0.00,,---,0.00,VWS V14.01,2013-05-29 14:30:00,
2013-05-29 10:35:00,78.1,61.1,30.17,SSE,158,0.0,7.0,56,0.00,,---,0.00,VWS V14.01,2013-05-29 14:35:00,
2013-05-29 10:40:00,78.3,61.3,30.17,ESE,117,2.0,3.0,56,0.00,,---,0.00,VWS V14.01,2013-05-29 14:40:00,
2013-05-29 10:45:00,78.5,60.5,30.17,SSE,150,0.0,3.0,54,0.00,,---,0.00,VWS V14.01,2013-05-29 14:45:00,
2013-05-29 10:50:00,78.8,61.3,30.17,ESE,102,2.0,5.0,55,0.00,,---,0.00,VWS V14.01,2013-05-29 14:50:00,
2013-05-29 10:55:00,79.2,60.6,30.17,SSE,168,0.0,9.0,53,0.00,,---,0.00,VWS V14.01,2013-05-29 14:55:00,
2013-05-29 11:00:00,79.4,61.8,30.17,North,11,0.0,1.0,55,0.00,,---,0.00,VWS V14.01,2013-05-29 15:00:00,
2013-05-29 11:05:00,79.8,61.2,30.17,SE,140,0.0,2.0,53,0.00,,---,0.00,VWS V14.01,2013-05-29 15:05:00,
2013-05-29 11:10:00,80.1,61.4,30.17,ESE,113,0.0,7.0,53,0.00,,---,0.00,VWS V14.01,2013-05-29 15:10:00,
2013-05-29 11:15:00,80.5,61.8,30.17,ESE,112,1.0,1.0,53,0.00,,---,0.00,VWS V14.01,2013-05-29 15:15:00,
2013-05-29 11:20:00,80.7,59.8,30.17,East,80,0.0,2.0,49,0.00,,---,0.00,VWS V14.01,2013-05-29 15:20:00,
2013-05-29 11:25:00,81.1,61.3,30.17,ESE,104,0.0,0.0,51,0.00,,---,0.00,VWS V14.01,2013-05-29 15:25:00,
2013-05-29 11:30:00,81.6,61.7,30.17,SE,130,0.0,0.0,51,0.00,,---,0.00,VWS V14.01,2013-05-29 15:30:00,
2013-05-29 11:35:00,82.0,60.4,30.17,South,184,0.0,7.0,48,0.00,,---,0.00,VWS V14.01,2013-05-29 15:35:00,
2013-05-29 11:40:00,82.2,59.4,30.17,ESE,112,3.0,6.0,46,0.00,,---,0.00,VWS V14.01,2013-05-29 15:40:00,
2013-05-29 11:45:00,82.4,59.6,30.17,East,85,0.0,7.0,46,0.00,,---,0.00,VWS V14.01,2013-05-29 15:45:00,
2013-05-29 11:50:00,82.2,59.4,30.17,SSE,162,0.0,10.0,46,0.00,,---,0.00,VWS V14.01,2013-05-29 15:50:00,
2013-05-29 11:55:00,82.2,58.8,30.17,ENE,73,0.0,4.0,45,0.00,,---,0.00,VWS V14.01,2013-05-29 15:55:00,
2013-05-29 12:00:00,82.6,58.5,30.17,SE,144,0.0,2.0,44,0.00,,---,0.00,VWS V14.01,2013-05-29 16:00:00,
2013-05-29 12:05:00,83.2,60.3,30.17,ESE,104,0.0,4.0,46,0.00,,---,0.00,VWS V14.01,2013-05-29 16:05:00,
2013-05-29 12:10:00,83.4,59.8,30.17,East,80,0.0,1.0,45,0.00,,---,0.00,VWS V14.01,2013-05-29 16:10:00,
2013-05-29 12:15:00,83.8,60.8,30.17,ENE,76,0.0,0.0,46,0.00,,---,0.00,VWS V14.01,2013-05-29 16:15:00,
2013-05-29 12:20:00,84.0,61.0,30.17,ENE,71,0.0,1.0,46,0.00,,---,0.00,VWS V14.01,2013-05-29 16:20:00,
2013-05-29 12:25:00,84.1,60.5,30.17,East,97,0.0,5.0,45,0.00,,---,0.00,VWS V14.01,2013-05-29 16:25:00,
2013-05-29 12:30:00,84.3,60.0,30.17,ESE,102,0.0,5.0,44,0.00,,---,0.00,VWS V14.01,2013-05-29 16:30:00,
2013-05-29 12:35:00,84.3,58.7,30.17,ESE,119,1.0,3.0,42,0.00,,---,0.00,VWS V14.01,2013-05-29 16:35:00,
2013-05-29 12:40:00,84.3,58.7,30.17,SE,126,0.0,3.0,42,0.00,,---,0.00,VWS V14.01,2013-05-29 16:40:00,
2013-05-29 12:45:00,84.5,59.6,30.17,West,261,0.0,3.0,43,0.00,,---,0.00,VWS V14.01,2013-05-29 16:45:00,
2013-05-29 12:50:00,84.9,60.6,30.17,NE,47,0.0,0.0,44,0.00,,---,0.00,VWS V14.01,2013-05-29 16:50:00,
2013-05-29 12:55:00,85.1,61.4,30.17,North,7,1.0,6.0,45,0.00,,---,0.00,VWS V14.01,2013-05-29 16:55:00,
2013-05-29 13:00:00,85.3,58.3,30.16,SE,127,0.0,3.0,40,0.00,,---,0.00,VWS V14.01,2013-05-29 17:00:00,
2013-05-29 13:05:00,85.3,59.0,30.16,South,174,0.0,7.0,41,0.00,,---,0.00,VWS V14.01,2013-05-29 17:05:00,
2013-05-29 13:10:00,85.1,60.8,30.16,SE,145,0.0,6.0,44,0.00,,---,0.00,VWS V14.01,2013-05-29 17:10:00,
2013-05-29 13:15:00,85.3,61.6,30.16,ENE,61,0.0,4.0,45,0.00,,---,0.00,VWS V14.01,2013-05-29 17:15:00,
2013-05-29 13:20:00,85.5,59.1,30.16,ESE,110,0.0,3.0,41,0.00,,---,0.00,VWS V14.01,2013-05-29 17:20:00,
2013-05-29 13:25:00,85.5,58.5,30.16,ESE,121,0.0,5.0,40,0.00,,---,0.00,VWS V14.01,2013-05-29 17:25:00,
2013-05-29 13:30:00,85.9,60.2,30.15,ESE,102,1.0,5.0,42,0.00,,---,0.00,VWS V14.01,2013-05-29 17:30:00,
2013-05-29 13:35:00,86.3,60.5,30.15,ESE,103,0.0,3.0,42,0.00,,---,0.00,VWS V14.01,2013-05-29 17:35:00,
2013-05-29 13:40:00,86.5,60.7,30.15,East,99,0.0,1.0,42,0.00,,---,0.00,VWS V14.01,2013-05-29 17:40:00,
2013-05-29 13:45:00,86.7,58.8,30.14,South,184,0.0,1.0,39,0.00,,---,0.00,VWS V14.01,2013-05-29 17:45:00,
2013-05-29 13:50:00,87.0,60.5,30.14,South,186,0.0,0.0,41,0.00,,---,0.00,VWS V14.01,2013-05-29 17:50:00,
2013-05-29 13:55:00,86.7,62.2,30.14,SSE,148,0.0,0.0,44,0.00,,---,0.00,VWS V14.01,2013-05-29 17:55:00,
2013-05-29 14:00:00,86.3,59.8,30.14,ESE,110,1.0,2.0,41,0.00,,---,0.00,VWS V14.01,2013-05-29 18:00:00,
2013-05-29 14:05:00,86.1,61.0,30.14,SE,140,1.0,5.0,43,0.00,,---,0.00,VWS V14.01,2013-05-29 18:05:00,
2013-05-29 14:10:00,85.9,60.2,30.14,East,97,0.0,2.0,42,0.00,,---,0.00,VWS V14.01,2013-05-29 18:10:00,
2013-05-29 14:15:00,85.3,60.9,30.14,SE,143,0.0,2.0,44,0.00,,---,0.00,VWS V14.01,2013-05-29 18:15:00,
2013-05-29 14:20:00,85.5,61.1,30.14,SSW,193,0.0,7.0,44,0.00,,---,0.00,VWS V14.01,2013-05-29 18:20:00,
2013-05-29 14:25:00,85.9,62.7,30.14,East,92,0.0,1.0,46,0.00,,---,0.00,VWS V14.01,2013-05-29 18:25:00,
2013-05-29 14:30:00,86.7,62.2,30.13,ESE,109,0.0,2.0,44,0.00,,---,0.00,VWS V14.01,2013-05-29 18:30:00,
2013-05-29 14:35:00,87.0,61.2,30.13,WSW,239,0.0,4.0,42,0.00,,---,0.00,VWS V14.01,2013-05-29 18:35:00,
2013-05-29 14:40:00,87.0,61.8,30.13,ENE,73,0.0,2.0,43,0.00,,---,0.00,VWS V14.01,2013-05-29 18:40:00,
2013-05-29 14:45:00,87.0,61.2,30.13,ESE,106,0.0,2.0,42,0.00,,---,0.00,VWS V14.01,2013-05-29 18:45:00,
2013-05-29 14:50:00,86.5,62.0,30.13,ESE,110,0.0,5.0,44,0.00,,---,0.00,VWS V14.01,2013-05-29 18:50:00,
2013-05-29 14:55:00,86.5,61.4,30.13,SSE,165,0.0,2.0,43,0.00,,---,0.00,VWS V14.01,2013-05-29 18:55:00,
2013-05-29 15:00:00,86.5,62.7,30.13,South,169,0.0,3.0,45,0.00,,---,0.00,VWS V14.01,2013-05-29 19:00:00,
2013-05-29 15:05:00,86.3,61.8,30.13,SSW,206,0.0,2.0,44,0.00,,---,0.00,VWS V14.01,2013-05-29 19:05:00,
2013-05-29 15:10:00,85.9,60.2,30.13,SSW,196,0.0,3.0,42,0.00,,---,0.00,VWS V14.01,2013-05-29 19:10:00,
2013-05-29 15:15:00,85.7,61.9,30.13,ESE,107,0.0,1.0,45,0.00,,---,0.00,VWS V14.01,2013-05-29 19:15:00,
2013-05-29 15:20:00,85.3,61.6,30.13,SSE,162,0.0,5.0,45,0.00,,---,0.00,VWS V14.01,2013-05-29 19:20:00,
2013-05-29 15:25:00,84.9,61.2,30.13,SSE,164,0.0,3.0,45,0.00,,---,0.00,VWS V14.01,2013-05-29 19:25:00,
2013-05-29 15:30:00,84.3,62.5,30.12,East,99,0.0,1.0,48,0.00,,---,0.00,VWS V14.01,2013-05-29 19:30:00,
2013-05-29 15:35:00,84.1,61.7,30.12,SW,220,0.0,3.0,47,0.00,,---,0.00,VWS V14.01,2013-05-29 19:35:00,
2013-05-29 15:40:00,83.8,61.4,30.12,South,172,0.0,2.0,47,0.00,,---,0.00,VWS V14.01,2013-05-29 19:40:00,
2013-05-29 15:45:00,83.6,61.3,30.12,South,179,0.0,4.0,47,0.00,,---,0.00,VWS V14.01,2013-05-29 19:45:00,
2013-05-29 15:50:00,83.6,62.4,30.12,WNW,282,0.0,1.0,49,0.00,,---,0.00,VWS V14.01,2013-05-29 19:50:00,
2013-05-29 15:55:00,83.4,62.8,30.12,SSE,161,0.0,0.0,50,0.00,,---,0.00,VWS V14.01,2013-05-29 19:55:00,
2013-05-29 16:00:00,83.2,62.1,30.12,ESE,114,0.0,2.0,49,0.00,,---,0.00,VWS V14.01,2013-05-29 20:00:00,
2013-05-29 16:05:00,83.2,60.9,30.12,South,189,0.0,2.0,47,0.00,,---,0.00,VWS V14.01,2013-05-29 20:05:00,
2013-05-29 16:10:00,83.2,62.7,30.12,SSE,165,0.0,2.0,50,0.00,,---,0.00,VWS V14.01,2013-05-29 20:10:00,
2013-05-29 16:15:00,83.8,62.6,30.12,East,83,0.0,6.0,49,0.00,,---,0.00,VWS V14.01,2013-05-29 20:15:00,
2013-05-29 16:20:00,84.0,62.8,30.12,East,88,0.0,0.0,49,0.00,,---,0.00,VWS V14.01,2013-05-29 20:20:00,
2013-05-29 16:25:00,84.1,61.7,30.12,South,179,1.0,6.0,47,0.00,,---,0.00,VWS V14.01,2013-05-29 20:25:00,
2013-05-29 16:30:00,84.1,62.9,30.12,East,86,0.0,2.0,49,0.00,,---,0.00,VWS V14.01,2013-05-29 20:30:00,
2013-05-29 16:35:00,84.0,62.8,30.12,SSE,167,0.0,3.0,49,0.00,,---,0.00,VWS V14.01,2013-05-29 20:35:00,
2013-05-29 16:40:00,83.8,63.2,30.12,SSE,152,0.0,0.0,50,0.00,,---,0.00,VWS V14.01,2013-05-29 20:40:00,
2013-05-29 16:45:00,83.4,61.7,30.11,East,100,0.0,0.0,48,0.00,,---,0.00,VWS V14.01,2013-05-29 20:45:00,
2013-05-29 16:50:00,83.2,62.1,30.11,SSW,205,0.0,3.0,49,0.00,,---,0.00,VWS V14.01,2013-05-29 20:50:00,
2013-05-29 16:55:00,83.4,61.7,30.11,East,95,1.0,3.0,48,0.00,,---,0.00,VWS V14.01,2013-05-29 20:55:00,
2013-05-29 17:00:00,83.2,60.3,30.12,SSE,160,0.0,6.0,46,0.00,,---,0.00,VWS V14.01,2013-05-29 21:00:00,
2013-05-29 17:05:00,83.4,61.7,30.12,East,97,0.0,5.0,48,0.00,,---,0.00,VWS V14.01,2013-05-29 21:05:00,
2013-05-29 17:10:00,83.6,61.8,30.12,South,175,0.0,1.0,48,0.00,,---,0.00,VWS V14.01,2013-05-29 21:10:00,
2013-05-29 17:15:00,83.4,62.3,30.12,East,85,0.0,1.0,49,0.00,,---,0.00,VWS V14.01,2013-05-29 21:15:00,
2013-05-29 17:20:00,83.4,61.7,30.12,ENE,58,0.0,0.0,48,0.00,,---,0.00,VWS V14.01,2013-05-29 21:20:00,
2013-05-29 17:25:00,83.4,61.7,30.12,NNE,21,0.0,2.0,48,0.00,,---,0.00,VWS V14.01,2013-05-29 21:25:00,
2013-05-29 17:30:00,83.6,61.3,30.11,South,191,0.0,5.0,47,0.00,,---,0.00,VWS V14.01,2013-05-29 21:30:00,
2013-05-29 17:35:00,83.6,61.3,30.11,SE,131,1.0,3.0,47,0.00,,---,0.00,VWS V14.01,2013-05-29 21:35:00,
2013-05-29 17:40:00,83.2,61.5,30.11,SSE,148,0.0,2.0,48,0.00,,---,0.00,VWS V14.01,2013-05-29 21:40:00,
2013-05-29 17:45:00,82.8,62.8,30.11,SE,134,0.0,1.0,51,0.00,,---,0.00,VWS V14.01,2013-05-29 21:45:00,
2013-05-29 17:50:00,82.6,61.5,30.11,East,89,0.0,2.0,49,0.00,,---,0.00,VWS V14.01,2013-05-29 21:50:00,
2013-05-29 17:55:00,82.4,61.9,30.11,ESE,102,0.0,2.0,50,0.00,,---,0.00,VWS V14.01,2013-05-29 21:55:00,
2013-05-29 18:00:00,82.6,60.3,30.11,SE,144,1.0,5.0,47,0.00,,---,0.00,VWS V14.01,2013-05-29 22:00:00,
2013-05-29 18:05:00,82.8,61.1,30.11,ENE,66,0.0,5.0,48,0.00,,---,0.00,VWS V14.01,2013-05-29 22:05:00,
2013-05-29 18:10:00,82.8,60.5,30.11,East,83,0.0,5.0,47,0.00,,---,0.00,VWS V14.01,2013-05-29 22:10:00,
2013-05-29 18:15:00,82.6,60.9,30.11,ESE,120,0.0,1.0,48,0.00,,---,0.00,VWS V14.01,2013-05-29 22:15:00,
2013-05-29 18:20:00,82.4,61.3,30.11,ESE,117,0.0,1.0,49,0.00,,---,0.00,VWS V14.01,2013-05-29 22:20:00,
2013-05-29 18:25:00,82.2,61.2,30.11,ESE,117,0.0,0.0,49,0.00,,---,0.00,VWS V14.01,2013-05-29 22:25:00,
2013-05-29 18:30:00,81.8,60.8,30.11,SE,144,0.0,3.0,49,0.00,,---,0.00,VWS V14.01,2013-05-29 22:30:00,
2013-05-29 18:35:00,81.6,60.6,30.11,SE,145,0.0,0.0,49,0.00,,---,0.00,VWS V14.01,2013-05-29 22:35:00,
2013-05-29 18:40:00,81.6,60.6,30.11,South,175,1.0,3.0,49,0.00,,---,0.00,VWS V14.01,2013-05-29 22:40:00,
2013-05-29 18:45:00,81.8,60.8,30.11,East,89,0.0,2.0,49,0.00,,---,0.00,VWS V14.01,2013-05-29 22:45:00,
2013-05-29 18:50:00,81.8,61.4,30.11,WSW,241,0.0,0.0,50,0.00,,---,0.00,VWS V14.01,2013-05-29 22:50:00,
2013-05-29 18:55:00,81.6,61.2,30.11,SE,134,0.0,1.0,50,0.00,,---,0.00,VWS V14.01,2013-05-29 22:55:00,
2013-05-29 19:00:00,81.4,61.5,30.11,SE,134,0.0,0.0,51,0.00,,---,0.00,VWS V14.01,2013-05-29 23:00:00,
2013-05-29 19:05:00,81.1,61.3,30.11,SSW,200,0.0,1.0,51,0.00,,---,0.00,VWS V14.01,2013-05-29 23:05:00,
2013-05-29 19:10:00,81.1,61.3,30.11,SSE,155,0.0,5.0,51,0.00,,---,0.00,VWS V14.01,2013-05-29 23:10:00,
2013-05-29 19:15:00,80.9,61.1,30.10,SE,141,0.0,2.0,51,0.00,,---,0.00,VWS V14.01,2013-05-29 23:15:00,
2013-05-29 19:20:00,80.9,61.1,30.10,SSE,162,0.0,0.0,51,0.00,,---,0.00,VWS V14.01,2013-05-29 23:20:00,
2013-05-29 19:25:00,80.7,61.5,30.10,SSE,162,0.0,0.0,52,0.00,,---,0.00,VWS V14.01,2013-05-29 23:25:00,
2013-05-29 19:30:00,80.5,61.8,30.10,SSE,162,0.0,0.0,53,0.00,,---,0.00,VWS V14.01,2013-05-29 23:30:00,
2013-05-29 19:35:00,80.1,62.0,30.10,SE,131,0.0,0.0,54,0.00,,---,0.00,VWS V14.01,2013-05-29 23:35:00,
2013-05-29 19:40:00,79.8,61.7,30.10,SE,134,0.0,0.0,54,0.00,,---,0.00,VWS V14.01,2013-05-29 23:40:00,
2013-05-29 19:45:00,79.6,62.0,30.10,SE,134,0.0,0.0,55,0.00,,---,0.00,VWS V14.01,2013-05-29 23:45:00,
2013-05-29 19:50:00,79.4,61.8,30.10,SSE,150,0.0,0.0,55,0.00,,---,0.00,VWS V14.01,2013-05-29 23:50:00,
2013-05-29 19:55:00,79.2,62.7,30.10,SE,145,0.0,1.0,57,0.00,,---,0.00,VWS V14.01,2013-05-29 23:55:00,
2013-05-29 20:00:00,79.0,62.0,30.10,SE,145,0.0,0.0,56,0.00,,---,0.00,VWS V14.01,2013-05-30 00:00:00,
2013-05-29 20:05:00,78.8,62.3,30.10,SE,145,0.0,0.0,57,0.00,,---,0.00,VWS V14.01,2013-05-30 00:05:00,
2013-05-29 20:10:00,78.5,63.0,30.10,SSE,155,0.0,0.0,59,0.00,,---,0.00,VWS V14.01,2013-05-30 00:10:00,
2013-05-29 20:15:00,78.3,63.3,30.10,SSE,155,0.0,0.0,60,0.00,,---,0.00,VWS V14.01,2013-05-30 00:15:00,
2013-05-29 20:20:00,77.9,62.9,30.10,SSE,155,0.0,0.0,60,0.00,,---,0.00,VWS V14.01,2013-05-30 00:20:00,
2013-05-29 20:25:00,77.6,63.1,30.10,SSE,155,0.0,0.0,61,0.00,,---,0.00,VWS V14.01,2013-05-30 00:25:00,
2013-05-29 20:30:00,77.2,63.2,30.10,SSE,155,0.0,0.0,62,0.00,,---,0.00,VWS V14.01,2013-05-30 00:30:00,
2013-05-29 20:35:00,76.7,63.6,30.10,SSE,155,0.0,0.0,64,0.00,,---,0.00,VWS V14.01,2013-05-30 00:35:00,
2013-05-29 20:40:00,76.3,63.7,30.10,SSE,155,0.0,0.0,65,0.00,,---,0.00,VWS V14.01,2013-05-30 00:40:00,
2013-05-29 20:45:00,76.0,63.4,30.10,SSE,155,0.0,0.0,65,0.00,,---,0.00,VWS V14.01,2013-05-30 00:45:00,
2013-05-29 20:50:00,75.6,63.5,30.10,SSE,155,0.0,0.0,66,0.00,,---,0.00,VWS V14.01,2013-05-30 00:50:00,
2013-05-29 20:55:00,75.3,63.6,30.10,SSE,155,0.0,0.0,67,0.00,,---,0.00,VWS V14.01,2013-05-30 00:55:00,
2013-05-29 21:00:00,75.1,63.4,30.10,SSE,155,0.0,0.0,67,0.00,,---,0.00,VWS V14.01,2013-05-30 01:00:00,
2013-05-29 21:05:00,74.7,63.5,30.10,SSE,155,0.0,0.0,68,0.00,,---,0.00,VWS V14.01,2013-05-30 01:05:00,
2013-05-29 21:10:00,74.4,63.2,30.10,SSE,155,0.0,0.0,68,0.00,,---,0.00,VWS V14.01,2013-05-30 01:10:00,
2013-05-29 21:15:00,74.0,63.2,30.10,SSE,155,0.0,0.0,69,0.00,,---,0.00,VWS V14.01,2013-05-30 01:15:00,
2013-05-29 21:20:00,73.9,63.5,30.11,SSE,155,0.0,0.0,70,0.00,,---,0.00,VWS V14.01,2013-05-30 01:20:00,
2013-05-29 21:25:00,73.7,63.3,30.11,SSE,155,0.0,0.0,70,0.00,,---,0.00,VWS V14.01,2013-05-30 01:25:00,
2013-05-29 21:30:00,73.5,63.5,30.11,SSE,155,0.0,0.0,71,0.00,,---,0.00,VWS V14.01,2013-05-30 01:30:00,
2013-05-29 21:35:00,73.3,63.3,30.11,SSE,155,0.0,0.0,71,0.00,,---,0.00,VWS V14.01,2013-05-30 01:35:00,
2013-05-29 21:40:00,73.0,63.0,30.11,SSE,155,0.0,0.0,71,0.00,,---,0.00,VWS V14.01,2013-05-30 01:40:00,
2013-05-29 21:45:00,72.8,62.9,30.11,SSE,155,0.0,0.0,71,0.00,,---,0.00,VWS V14.01,2013-05-30 01:45:00,
2013-05-29 21:50:00,72.7,62.8,30.11,SSE,155,0.0,0.0,71,0.00,,---,0.00,VWS V14.01,2013-05-30 01:50:00,
2013-05-29 21:55:00,72.7,63.2,30.11,SSE,155,0.0,0.0,72,0.00,,---,0.00,VWS V14.01,2013-05-30 01:55:00,
2013-05-29 22:00:00,72.5,63.4,30.11,SSE,155,0.0,0.0,73,0.00,,---,0.00,VWS V14.01,2013-05-30 02:00:00,
2013-05-29 22:05:00,72.5,63.4,30.12,SSE,155,0.0,0.0,73,0.00,,---,0.00,VWS V14.01,2013-05-30 02:05:00,
2013-05-29 22:10:00,72.3,63.2,30.12,SSE,155,0.0,0.0,73,0.00,,---,0.00,VWS V14.01,2013-05-30 02:10:00,
2013-05-29 22:15:00,72.3,63.2,30.12,SSE,155,0.0,0.0,73,0.00,,---,0.00,VWS V14.01,2013-05-30 02:15:00,
2013-05-29 22:20:00,72.5,63.0,30.12,SSW,213,0.0,1.0,72,0.00,,---,0.00,VWS V14.01,2013-05-30 02:20:00,
2013-05-29 22:25:00,72.7,62.8,30.12,SSE,162,0.0,2.0,71,0.00,,---,0.00,VWS V14.01,2013-05-30 02:25:00,
2013-05-29 22:30:00,73.0,62.7,30.12,ESE,116,0.0,2.0,70,0.00,,---,0.00,VWS V14.01,2013-05-30 02:30:00,
2013-05-29 22:35:00,73.3,62.9,30.13,SE,127,0.0,0.0,70,0.00,,---,0.00,VWS V14.01,2013-05-30 02:35:00,
2013-05-29 22:40:00,73.5,62.7,30.13,WNW,296,0.0,1.0,69,0.00,,---,0.00,VWS V14.01,2013-05-30 02:40:00,
2013-05-29 22:45:00,73.5,62.7,30.13,SE,126,1.0,1.0,69,0.00,,---,0.00,VWS V14.01,2013-05-30 02:45:00,
2013-05-29 22:50:00,73.5,62.7,30.14,ESE,117,0.0,1.0,69,0.00,,---,0.00,VWS V14.01,2013-05-30 02:50:00,
2013-05-29 22:55:00,73.7,62.5,30.14,SSE,155,0.0,0.0,68,0.00,,---,0.00,VWS V14.01,2013-05-30 02:55:00,
2013-05-29 23:00:00,73.5,62.7,30.14,SSE,154,0.0,0.0,69,0.00,,---,0.00,VWS V14.01,2013-05-30 03:00:00,
2013-05-29 23:05:00,73.3,62.5,30.14,SSE,154,0.0,0.0,69,0.00,,---,0.00,VWS V14.01,2013-05-30 03:05:00,
2013-05-29 23:10:00,73.5,62.3,30.14,SSE,155,0.0,2.0,68,0.00,,---,0.00,VWS V14.01,2013-05-30 03:10:00,
2013-05-29 23:15:00,73.5,62.3,30.14,SE,126,1.0,2.0,68,0.00,,---,0.00,VWS V14.01,2013-05-30 03:15:00,
2013-05-29 23:20:00,73.5,62.3,30.14,ESE,113,0.0,2.0,68,0.00,,---,0.00,VWS V14.01,2013-05-30 03:20:00,
2013-05-29 23:25:00,73.5,61.9,30.14,East,99,0.0,3.0,67,0.00,,---,0.00,VWS V14.01,2013-05-30 03:25:00,
2013-05-29 23:30:00,73.5,61.9,30.14,SE,138,0.0,2.0,67,0.00,,---,0.00,VWS V14.01,2013-05-30 03:30:00,
2013-05-29 23:35:00,73.3,61.7,30.15,SE,137,0.0,0.0,67,0.00,,---,0.00,VWS V14.01,2013-05-30 03:35:00,
2013-05-29 23:40:00,73.3,62.1,30.15,East,99,0.0,0.0,68,0.00,,---,0.00,VWS V14.01,2013-05-30 03:40:00,
2013-05-29 23:45:00,73.2,62.0,30.15,SE,144,0.0,1.0,68,0.00,,---,0.00,VWS V14.01,2013-05-30 03:45:00,
2013-05-29 23:50:00,73.0,61.8,30.15,East,96,2.0,5.0,68,0.00,,---,0.00,VWS V14.01,2013-05-30 03:50:00,
2013-05-29 23:55:00,72.8,61.6,30.15,ESE,110,0.0,1.0,68,0.00,,---,0.00,VWS V14.01,2013-05-30 03:55:00,
2013-05-29 23:59:00,72.8,62.0,30.15,SSE,168,0.0,0.0,69,0.00,,---,0.00,VWS V14.01,2013-05-30 03:59:00,